San Carlos, CA

10:08 PM PST on January 19, 2017 (GMT -0800)
San Carlos

Weather History for KSQL - April, 2013

Change the Weather History Date:

Saturday, April 6, 2013

  Actual Average Record
Temperature  
Mean Temperature 58 °F -  
Max Temperature 62 °F 66 °F 90 °F (1989)
Min Temperature 53 °F 45 °F 35 °F (1975)
Degree Days  
Heating Degree Days 8    
Growing Degree Days 8 (Base 50)    
Moisture  
Dew Point 50 °F    
Average Humidity 79    
Maximum Humidity 88    
Minimum Humidity 63    
Precipitation  
Precipitation 0.00 in - - ()
Sea Level Pressure  
Sea Level Pressure 30.19 in    
Wind  
Wind Speed 4 mph (WSW)    
Max Wind Speed 13 mph    
Max Gust Speed 16 mph    
Visibility 10 miles    
Events      
Averages and records for this station are not official NWS values.
T = Trace of Precipitation, MM = Missing Value Source: NWS Daily Summary

Daily Weather History Graph

Daily Weather History Graph

Search for Another Location

Airport or City:

Trip Planner

Search our weather history database for the weather conditions in past years. The results will help you decide how hot, cold, wet, or windy it might be!

Date:

Astronomy

Apr. 06, 2013 Rise Set
Actual Time 6:46 AM PDT 7:36 PM PDT
Civil Twilight 6:20 AM PDT 8:03 PM PDT
Nautical Twilight 5:48 AM PDT 8:34 PM PDT
Astronomical Twilight 5:16 AM PDT 9:07 PM PDT
Moon 4:29 AM PDT (4/6) 4:14 PM PDT (4/6)
Length of Visible Light 13h 43m
Length of Day
12h 50m
Waning Crescent, 14% of the Moon is Illuminated
Apr 6
Waning Crescent
Apr 10
New
Apr 18
First Quarter
Apr 25
Full
May 2
Last Quarter

Hourly Weather History & Observations

Time (PDT) Temp. Dew Point Humidity Pressure Visibility Wind Dir Wind Speed Gust Speed Precip Events Conditions
12:10 AM 55.4 °F 50.0 °F 82% 30.20 in 10.0 mi West 3.5 mph - N/A   Mostly Cloudy
12:30 AM 55.4 °F 50.0 °F 82% 30.20 in 10.0 mi Calm Calm - N/A   Mostly Cloudy
12:55 AM 55.4 °F 48.2 °F 77% 30.19 in 10.0 mi SW 3.5 mph - N/A   Overcast
1:15 AM 55.4 °F 48.2 °F 77% 30.20 in 10.0 mi South 4.6 mph - N/A   Mostly Cloudy
1:30 AM 55.4 °F 48.2 °F 77% 30.20 in 10.0 mi SW 3.5 mph - N/A   Overcast
1:55 AM 55.4 °F 48.2 °F 77% 30.20 in 10.0 mi WSW 3.5 mph - N/A   Overcast
2:15 AM 55.4 °F 48.2 °F 77% 30.20 in 10.0 mi West 4.6 mph - N/A   Overcast
2:30 AM 55.4 °F 50.0 °F 82% 30.20 in 10.0 mi West 3.5 mph - N/A   Overcast
2:55 AM 55.4 °F 50.0 °F 82% 30.19 in 10.0 mi NW 3.5 mph - N/A   Overcast
3:15 AM 55.4 °F 50.0 °F 82% 30.19 in 10.0 mi Calm Calm - N/A   Overcast
3:30 AM 55.4 °F 50.0 °F 82% 30.18 in 10.0 mi Calm Calm - N/A   Overcast
3:55 AM 55.4 °F 50.0 °F 82% 30.18 in 10.0 mi Calm Calm - N/A   Overcast
4:15 AM 55.4 °F 50.0 °F 82% 30.17 in 10.0 mi SSE 4.6 mph - N/A   Overcast
4:30 AM 55.4 °F 50.0 °F 82% 30.17 in 10.0 mi Calm Calm - N/A   Overcast
4:50 AM 55.4 °F 50.0 °F 82% 30.18 in 10.0 mi Calm Calm - N/A   Overcast
5:15 AM 55.4 °F 50.0 °F 82% 30.18 in 10.0 mi Calm Calm - N/A   Overcast
5:30 AM 55.4 °F 50.0 °F 82% 30.18 in 10.0 mi Calm Calm - N/A   Overcast
5:50 AM 55.4 °F 50.0 °F 82% 30.18 in 10.0 mi South 3.5 mph - N/A   Overcast
6:15 AM 55.4 °F 50.0 °F 82% 30.19 in 10.0 mi South 3.5 mph - N/A   Overcast
6:35 AM 53.6 °F 50.0 °F 88% 30.18 in 10.0 mi SSW 3.5 mph - N/A   Mostly Cloudy
6:47 AM 53.6 °F 50.0 °F 88% 30.18 in 10.0 mi South 3.5 mph - N/A   Mostly Cloudy
6:50 AM 53.6 °F 50.0 °F 88% 30.19 in 10.0 mi SSE 3.5 mph - N/A   Mostly Cloudy
7:47 AM 55.4 °F 50.0 °F 82% 30.19 in 10.0 mi Calm Calm - N/A   Overcast
8:52 AM 57.2 °F 50.0 °F 77% 30.20 in 10.0 mi South 2.3 mph - N/A   Overcast
9:47 AM 59.0 °F 50.0 °F 72% 30.19 in 10.0 mi SE 3.5 mph - N/A   Scattered Clouds
10:08 AM 59.0 °F 50.0 °F 72% 30.19 in 10.0 mi Calm Calm - N/A   Overcast
11:47 AM 60.8 °F 53.6 °F 77% 30.22 in 10.0 mi West 9.2 mph - N/A   Overcast
12:55 PM 62.6 °F 53.6 °F 72% 30.21 in 10.0 mi WSW 10.4 mph - N/A   Mostly Cloudy
1:58 PM 62.6 °F 53.6 °F 72% 30.19 in 10.0 mi WSW 9.2 mph - N/A   Mostly Cloudy
2:47 PM 62.6 °F 53.6 °F 72% 30.19 in 10.0 mi WSW 12.7 mph - N/A   Mostly Cloudy
3:56 PM 60.8 °F 50.0 °F 68% 30.19 in 10.0 mi WSW 10.4 mph - N/A   Mostly Cloudy
4:47 PM 62.6 °F 50.0 °F 63% 30.17 in 10.0 mi West 10.4 mph 16.1 mph N/A   Mostly Cloudy
5:52 PM 59.0 °F 50.0 °F 72% 30.16 in 10.0 mi West 10.4 mph - N/A   Mostly Cloudy
6:47 PM 59.0 °F 48.2 °F 67% 30.16 in 10.0 mi West 9.2 mph - N/A   Mostly Cloudy
7:53 PM 57.2 °F 50.0 °F 77% 30.16 in 10.0 mi West 9.2 mph - N/A   Mostly Cloudy
8:48 PM 55.4 °F 48.2 °F 77% 30.18 in 10.0 mi West 9.2 mph - N/A   Mostly Cloudy
9:15 PM 55.4 °F 48.2 °F 77% 30.18 in 10.0 mi WNW 6.9 mph - N/A   Clear
9:30 PM 55.4 °F 48.2 °F 77% 30.18 in 10.0 mi WNW 10.4 mph - N/A   Clear
9:55 PM 53.6 °F 48.2 °F 82% 30.18 in 10.0 mi West 6.9 mph - N/A   Clear
10:15 PM 53.6 °F 48.2 °F 82% 30.19 in 10.0 mi NW 6.9 mph - N/A   Clear
10:30 PM 55.4 °F 48.2 °F 77% 30.19 in 10.0 mi West 3.5 mph - N/A   Clear
10:50 PM 53.6 °F 48.2 °F 82% 30.20 in 10.0 mi West 4.6 mph - N/A   Clear
11:15 PM 53.6 °F 48.2 °F 82% 30.20 in 10.0 mi West 5.8 mph - N/A   Clear
11:35 PM 53.6 °F 48.2 °F 82% 30.20 in 10.0 mi WNW 5.8 mph - N/A   Mostly Cloudy
11:50 PM 53.6 °F 48.2 °F 82% 30.19 in 10.0 mi WNW 5.8 mph - N/A   Overcast